Location: Baumgarten
(49.0970°N, 12.7493°E)
Time: 21:16:27
(UTC+00:00)

X-37B - Visible Passes

Search period start: 18 September 2020 00:00
Search period end: 28 September 2020 00:00
Orbit: 386 x 387 km, 45.0° (Epoch: 18 September)

Date Brightness Start Highest point End Pass type
(mag) Time Alt. Az. Time Alt. Az. Time Alt. Az.
18 Sep 1.3 03:25:02 29° SW 03:26:04 39° S 03:29:04 10° ESE visible
19 Sep 2.7 02:29:08 22° ESE 02:29:08 22° ESE 02:30:33 10° ESE visible
19 Sep 1.6 04:01:25 13° WSW 04:03:53 34° S 04:06:48 10° SE visible
20 Sep 1.3 03:05:33 38° S 03:05:33 38° S 03:08:24 10° ESE visible
21 Sep 3.7 02:09:45 11° ESE 02:09:45 11° ESE 02:09:56 10° ESE visible
21 Sep 1.8 03:42:02 21° SW 03:43:11 27° SSW 03:45:57 10° SE visible
22 Sep 2.6 02:46:20 21° SE 02:46:20 21° SE 02:47:40 10° SE visible
22 Sep 2.7 04:19:00 10° WSW 04:20:49 14° SSW 04:22:38 10° S visible
23 Sep 2.3 03:23:01 20° S 03:23:01 20° S 03:24:55 10° SSE visible
